Simultaneous Nadir Overpasses (SNOs) Predictions

Prediction of SNOs between GOES-17 and LANDSAT-8 Satellite Orbit:

Table of predicted SNOs for the next 14.0 days since TLE Epoch: 4/8/2023
Index Date Time (GOES-17) GOES-17 Lat,Lon LANDSAT-8 Lat,Lon Distance(km) Time Diff (sec)
1 04/08/2023 05:21:32 0.00,-104.73 -0.48,-106.98 256.09 80
2 04/10/2023 05:06:38 -0.00,-104.72 0.18,-104.02 80.35 80
3 04/12/2023 04:54:23 -0.01,-104.71 0.79,-101.05 416.33 80
4 04/12/2023 17:15:37 0.01,-104.74 0.34,-106.20 166.26 80
5 04/14/2023 17:06:02 0.01,-104.73 -0.30,-103.23 169.80 80
6 04/15/2023 05:27:25 -0.01,-104.69 -0.82,-108.42 424.26 80
7 04/17/2023 05:15:10 -0.01,-104.69 -0.15,-105.46 87.56 80
8 04/19/2023 05:00:14 -0.01,-104.68 0.47,-102.49 249.74 80
9 04/19/2023 17:21:28 0.01,-104.71 0.65,-107.64 332.83 80
10 04/21/2023 17:11:52 0.02,-104.71 0.00,-104.67 4.82 80
